| time (UTC) | temp F | wind direction | speed knots | gust knots | rain 1hr in | rain 24hr in | rain mn in | humidity % | barometer mb |
| 20260507135516 | 61 | 178 | 1.7 | 4.3 | 0.00 | 0.00 | 0.00 | 46 | 1014.1 |
| 20260507134946 | 61 | 148 | 0.9 | 2.6 | 0.00 | 0.00 | 0.00 | 46 | 1014.1 |
| 20260507134516 | 61 | 306 | 0.9 | 2.6 | 0.00 | 0.00 | 0.00 | 51 | 1014.1 |
| 20260507134016 | 60 | 302 | 0.9 | 6.1 | 0.00 | 0.00 | 0.00 | 50 | 1014.1 |
| 20260507133446 | 60 | 336 | 1.7 | 6.1 | 0.00 | 0.00 | 0.00 | 48 | 1014.2 |
| 20260507132946 | 60 | 302 | 0.9 | 5.2 | 0.00 | 0.00 | 0.00 | 49 | 1014.2 |
| 20260507132516 | 59 | 235 | 0.0 | 5.2 | 0.00 | 0.00 | 0.00 | 48 | 1014.3 |
| 20260507132016 | 59 | 222 | 3.5 | 5.2 | 0.00 | 0.00 | 0.00 | 50 | 1014.3 |
| 20260507131016 | 60 | 208 | 2.6 | 4.3 | 0.00 | 0.00 | 0.00 | 48 | 1014.4 |
| 20260507130446 | 60 | 184 | 1.7 | 5.2 | 0.00 | 0.00 | 0.00 | 47 | 1014.4 |
| 20260507125946 | 60 | 252 | 0.0 | 5.2 | 0.00 | 0.00 | 0.00 | 48 | 1014.4 |
| 20260507125516 | 60 | 9 | 0.0 | 2.6 | 0.00 | 0.00 | 0.00 | 47 | 1014.4 |
| 20260507124446 | 60 | 313 | 1.7 | 4.3 | 0.00 | 0.00 | 0.00 | 49 | 1014.5 |
| 20260507124016 | 60 | 339 | 2.6 | 5.2 | 0.00 | 0.00 | 0.00 | 50 | 1014.6 |
| 20260507123446 | 59 | 178 | 0.9 | 5.2 | 0.00 | 0.00 | 0.00 | 49 | 1014.6 |
| 20260507122946 | 58 | 149 | 3.5 | 3.5 | 0.00 | 0.00 | 0.00 | 49 | 1014.6 |
| 20260507122516 | 58 | 127 | 2.6 | 2.6 | 0.00 | 0.00 | 0.00 | 52 | 1014.6 |
| 20260507121946 | 58 | 78 | 0.9 | 2.6 | 0.00 | 0.00 | 0.00 | 50 | 1014.6 |
| 20260507121516 | 58 | 78 | 0.0 | 2.6 | 0.00 | 0.00 | 0.00 | 49 | 1014.6 |
| 20260507121016 | 58 | 78 | 0.9 | 2.6 | 0.00 | 0.00 | 0.00 | 50 | 1014.6 |
| 20260507120516 | 58 | 69 | 0.9 | 2.6 | 0.00 | 0.00 | 0.00 | 51 | 1014.6 |
| 20260507115446 | 58 | 23 | 0.9 | 4.3 | 0.00 | 0.00 | 0.00 | 50 | 1014.7 |
| 20260507114946 | 58 | 5 | 1.7 | 2.6 | 0.00 | 0.00 | 0.00 | 51 | 1014.6 |
| 20260507114516 | 58 | 5 | 1.7 | 4.3 | 0.00 | 0.00 | 0.00 | 57 | 1014.6 |
| 20260507113516 | 58 | 292 | 2.6 | 4.3 | 0.00 | 0.00 | 0.00 | 50 | 1014.7 |
| 20260507113016 | 58 | 229 | 0.9 | 5.2 | 0.00 | 0.00 | 0.00 | 47 | 1014.6 |
| 20260507112445 | 59 | 228 | 1.7 | 5.2 | 0.00 | 0.00 | 0.00 | 50 | 1014.6 |
| 20260507111517 | 60 | 346 | 1.7 | 3.5 | 0.00 | 0.00 | 0.00 | 49 | 1014.6 |
| 20260507111016 | 62 | 296 | 1.7 | 3.5 | 0.00 | 0.00 | 0.00 | 46 | 1014.7 |
| 20260507110516 | 61 | 257 | 0.9 | 5.2 | 0.00 | 0.00 | 0.00 | 49 | 1014.7 |
| 20260507105446 | 59 | 190 | 3.5 | 5.2 | 0.00 | 0.00 | 0.00 | 51 | 1014.7 |
| 20260507104946 | 58 | 92 | 0.0 | 5.2 | 0.00 | 0.00 | 0.00 | 54 | 1014.7 |
| 20260507104516 | 58 | 108 | 2.6 | 5.2 | 0.00 | 0.00 | 0.00 | 54 | 1014.8 |
| 20260507104016 | 58 | 99 | 1.7 | 6.1 | 0.00 | 0.00 | 0.00 | 55 | 1014.8 |
| 20260507103446 | 58 | 81 | 0.0 | 6.1 | 0.00 | 0.00 | 0.00 | 61 | 1014.9 |
| 20260507102946 | 57 | 90 | 1.7 | 3.5 | 0.00 | 0.00 | 0.00 | 64 | 1015.0 |
| 20260507102516 | 57 | 111 | 1.7 | 3.5 | 0.00 | 0.00 | 0.00 | 64 | 1015.0 |
| 20260507102016 | 57 | 132 | 0.0 | 4.3 | 0.00 | 0.00 | 0.00 | 66 | 1015.0 |
| 20260507100946 | 56 | 109 | 3.5 | 3.5 | 0.00 | 0.00 | 0.00 | 68 | 1015.1 |
| 20260507100516 | 56 | 110 | 0.0 | 3.5 | 0.00 | 0.00 | 0.00 | 67 | 1015.1 |
| 20260507095946 | 55 | 98 | 1.7 | 4.3 | 0.00 | 0.00 | 0.00 | 70 | 1015.2 |
| 20260507095447 | 54 | 62 | 0.0 | 4.3 | 0.00 | 0.00 | 0.00 | 71 | 1015.2 |
| 20260507094946 | 55 | 69 | 1.7 | 4.3 | 0.00 | 0.00 | 0.00 | 68 | 1015.2 |
| 20260507094515 | 55 | 102 | 1.7 | 4.3 | 0.00 | 0.00 | 0.00 | 71 | 1015.1 |
| 20260507093446 | 53 | 221 | 1.7 | 4.3 | 0.00 | 0.00 | 0.00 | 77 | 1015.2 |
| 20260507093015 | 53 | 86 | 0.0 | 5.2 | 0.00 | 0.00 | 0.00 | 76 | 1015.2 |
| 20260507092445 | 53 | 147 | 0.0 | 5.2 | 0.00 | 0.00 | 0.00 | 77 | 1015.2 |
| 20260507091945 | 53 | 219 | 1.7 | 5.2 | 0.00 | 0.00 | 0.00 | 78 | 1015.2 |
| 20260507091515 | 53 | 137 | 0.9 | 5.2 | 0.00 | 0.00 | 0.00 | 80 | 1015.3 |
| 20260507091015 | 52 | 103 | 1.7 | 5.2 | 0.00 | 0.00 | 0.00 | 81 | 1015.2 |
| 20260507090445 | 52 | 105 | 5.2 | 5.2 | 0.00 | 0.00 | 0.00 | 81 | 1015.2 |
| 20260507085015 | 51 | 98 | 0.9 | 4.3 | 0.00 | 0.00 | 0.00 | 85 | 1015.2 |
| 20260507084445 | 51 | 55 | 0.9 | 4.3 | 0.00 | 0.00 | 0.00 | 86 | 1015.2 |
| 20260507084017 | 50 | 84 | 2.6 | 3.5 | 0.00 | 0.00 | 0.00 | 87 | 1015.2 |
| 20260507083516 | 50 | 243 | 0.9 | 3.5 | 0.00 | 0.00 | 0.00 | 89 | 1015.3 |
| 20260507082946 | 49 | 119 | 0.9 | 3.5 | 0.00 | 0.00 | 0.00 | 90 | 1015.2 |
| 20260507082517 | 49 | 150 | 3.5 | 3.5 | 0.00 | 0.00 | 0.00 | 91 | 1015.3 |
| 20260507082015 | 49 | 100 | 1.7 | 4.3 | 0.00 | 0.00 | 0.00 | 91 | 1015.3 |
| 20260507081516 | 48 | 131 | 1.7 | 4.3 | 0.00 | 0.00 | 0.00 | 92 | 1015.3 |
| 20260507080945 | 47 | 129 | 2.6 | 3.5 | 0.00 | 0.00 | 0.00 | 93 | 1015.4 |
| 20260507080016 | 47 | 113 | 0.0 | 2.6 | 0.00 | 0.00 | 0.00 | 93 | 1015.3 |
| 20260507074946 | 46 | 180 | 1.7 | 2.6 | 0.00 | 0.00 | 0.00 | 93 | 1015.3 |
| 20260507074516 | 45 | 182 | 1.7 | 1.7 | 0.00 | 0.00 | 0.00 | 93 | 1015.3 |
| 20260507074016 | 45 | 184 | 0.0 | 1.7 | 0.00 | 0.00 | 0.00 | 93 | 1015.2 |
| 20260507073446 | 45 | 302 | 0.0 | 0.9 | 0.00 | 0.00 | 0.00 | 93 | 1015.3 |
| 20260507072945 | 44 | 132 | 0.0 | 0.0 | 0.00 | 0.00 | 0.00 | 93 | 1015.3 |
| 20260507072516 | 44 | 155 | 0.0 | 1.7 | 0.00 | 0.00 | 0.00 | 92 | 1015.2 |
| 20260507071516 | 43 | 61 | 0.0 | 0.0 | 0.00 | 0.00 | 0.00 | 92 | 1015.1 |
| 20260507071016 | 42 | 61 | 0.0 | 1.7 | 0.00 | 0.00 | 0.00 | 92 | 1015.1 |
| 20260507070515 | 42 | 67 | 0.0 | 1.7 | 0.00 | 0.00 | 0.00 | 91 | 1015.1 |
| 20260507070015 | 41 | 68 | 0.0 | 1.7 | 0.00 | 0.00 | 0.00 | 91 | 1015.1 |
| 20260507065516 | 41 | 241 | 0.9 | 0.9 | 0.00 | 0.00 | 0.00 | 91 | 1015.1 |
| 20260507064945 | 41 | 241 | 0.0 | 0.9 | 0.00 | 0.00 | 0.00 | 91 | 1015.2 |
| 20260507064015 | 40 | 241 | 0.0 | 1.7 | 0.00 | 0.00 | 0.00 | 90 | 1015.2 |
| 20260507062946 | 40 | 22 | 0.0 | 1.7 | 0.00 | 0.00 | 0.00 | 90 | 1015.2 |
| 20260507062515 | 40 | 355 | 0.0 | 1.7 | 0.00 | 0.00 | 0.00 | 90 | 1015.2 |
| 20260507061946 | 40 | 355 | 0.0 | 1.7 | 0.00 | 0.00 | 0.00 | 90 | 1015.1 |
| 20260507061445 | 40 | 355 | 0.9 | 0.9 | 0.00 | 0.00 | 0.00 | 90 | 1015.1 |
| 20260507061015 | 40 | 355 | 0.0 | 0.0 | 0.00 | 0.00 | 0.00 | 90 | 1015.1 |
| 20260507060445 | 39 | 355 | 0.0 | 0.0 | 0.00 | 0.00 | 0.00 | 89 | 1015.1 |
| 20260507060015 | 39 | 355 | 0.0 | 0.0 | 0.00 | 0.00 | 0.00 | 89 | 1015.0 |
| 20260507055515 | 39 | 355 | 0.0 | 0.0 | 0.00 | 0.00 | 0.00 | 89 | 1015.0 |
| 20260507054945 | 39 | 355 | 0.0 | 1.7 | 0.00 | 0.00 | 0.00 | 89 | 1015.0 |
| 20260507054515 | 39 | 355 | 0.0 | 1.7 | 0.00 | 0.00 | 0.00 | 89 | 1014.9 |
| 20260507053946 | 39 | 355 | 0.0 | 1.7 | 0.00 | 0.00 | 0.00 | 89 | 1014.9 |
| 20260507053015 | 38 | 355 | 0.0 | 0.0 | 0.00 | 0.00 | 0.00 | 88 | 1014.8 |
| 20260507052445 | 38 | 355 | 0.0 | 1.7 | 0.00 | 0.00 | 0.00 | 88 | 1014.7 |
| 20260507052016 | 38 | 355 | 0.0 | 1.7 | 0.00 | 0.00 | 0.00 | 88 | 1014.7 |
| 20260507051445 | 38 | 36 | 0.9 | 0.9 | 0.00 | 0.00 | 0.00 | 88 | 1014.8 |
| 20260507051015 | 38 | 238 | 0.0 | 0.0 | 0.00 | 0.00 | 0.00 | 88 | 1014.7 |
| 20260507050445 | 38 | 201 | 0.0 | 0.0 | 0.00 | 0.00 | 0.00 | 88 | 1014.7 |
| 20260507050016 | 38 | 44 | 0.0 | 0.0 | 0.00 | 0.00 | 0.00 | 88 | 1014.7 |
| 20260507044447 | 38 | 49 | 0.0 | 0.0 | 0.00 | 0.00 | 0.00 | 87 | 1014.6 |
| 20260507044015 | 38 | 59 | 0.0 | 0.0 | 0.00 | 0.00 | 0.00 | 87 | 1014.6 |
| 20260507043015 | 38 | 57 | 0.0 | 1.7 | 0.00 | 0.00 | 0.00 | 87 | 1014.6 |
| 20260507042445 | 38 | 30 | 0.0 | 1.7 | 0.00 | 0.00 | 0.00 | 87 | 1014.5 |
| 20260507042017 | 38 | 30 | 0.9 | 2.6 | 0.00 | 0.00 | 0.00 | 87 | 1014.5 |
| 20260507035946 | 38 | 30 | 0.0 | 3.5 | 0.00 | 0.00 | 0.00 | 86 | 1014.6 |
| 20260507035445 | 38 | 30 | 1.7 | 3.5 | 0.00 | 0.00 | 0.00 | 85 | 1014.6 |
| 20260507034945 | 38 | 32 | 0.9 | 2.6 | 0.00 | 0.00 | 0.00 | 86 | 1014.6 |
| 20260507034445 | 38 | 32 | 0.0 | 2.6 | 0.00 | 0.00 | 0.00 | 85 | 1014.5 |
| 20260507034015 | 38 | 32 | 0.9 | 1.7 | 0.00 | 0.00 | 0.00 | 85 | 1014.6 |
| 20260507033445 | 38 | 32 | 0.0 | 0.9 | 0.00 | 0.00 | 0.00 | 85 | 1014.5 |
| 20260507032945 | 38 | 32 | 0.0 | 0.0 | 0.00 | 0.00 | 0.00 | 85 | 1014.5 |
| 20260507032515 | 38 | 32 | 0.0 | 0.0 | 0.00 | 0.00 | 0.00 | 85 | 1014.5 |
| 20260507031945 | 39 | 32 | 0.0 | 0.0 | 0.00 | 0.00 | 0.00 | 85 | 1014.5 |
| 20260507031515 | 39 | 32 | 0.0 | 0.0 | 0.00 | 0.00 | 0.00 | 85 | 1014.4 |
| 20260507030945 | 39 | 32 | 0.0 | 0.0 | 0.00 | 0.00 | 0.00 | 85 | 1014.5 |
| 20260507030015 | 39 | 32 | 0.0 | 0.0 | 0.00 | 0.00 | 0.00 | 85 | 1014.5 |
| 20260507025445 | 39 | 32 | 0.0 | 0.0 | 0.00 | 0.00 | 0.00 | 84 | 1014.4 |
| 20260507025016 | 39 | 32 | 0.0 | 0.0 | 0.00 | 0.00 | 0.00 | 84 | 1014.5 |
| 20260507024515 | 39 | 32 | 0.0 | 0.0 | 0.00 | 0.00 | 0.00 | 84 | 1014.5 |
| 20260507024015 | 39 | 32 | 0.0 | 0.0 | 0.00 | 0.00 | 0.00 | 84 | 1014.4 |
| 20260507023515 | 39 | 32 | 0.0 | 0.0 | 0.00 | 0.00 | 0.00 | 84 | 1014.5 |
| 20260507023015 | 39 | 32 | 0.0 | 0.0 | 0.00 | 0.00 | 0.00 | 84 | 1014.4 |
| 20260507022445 | 39 | 32 | 0.0 | 0.0 | 0.00 | 0.00 | 0.00 | 84 | 1014.4 |
| 20260507022015 | 39 | 32 | 0.0 | 0.0 | 0.00 | 0.00 | 0.00 | 84 | 1014.4 |
| 20260507021445 | 40 | 32 | 0.0 | 0.0 | 0.00 | 0.00 | 0.00 | 84 | 1014.4 |
| 20260507020945 | 40 | 32 | 0.0 | 0.0 | 0.00 | 0.00 | 0.00 | 84 | 1014.4 |
| 20260507020515 | 40 | 32 | 0.0 | 0.9 | 0.00 | 0.00 | 0.00 | 84 | 1014.4 |
| 20260507020016 | 40 | 32 | 0.0 | 0.9 | 0.00 | 0.00 | 0.00 | 84 | 1014.4 |
| 20260507015445 | 40 | 32 | 0.0 | 0.9 | 0.00 | 0.00 | 0.00 | 84 | 1014.4 |
| 20260507015015 | 40 | 32 | 0.0 | 1.7 | 0.00 | 0.00 | 0.00 | 84 | 1014.4 |
| 20260507014445 | 40 | 32 | 0.0 | 1.7 | 0.00 | 0.00 | 0.00 | 84 | 1014.3 |
| 20260507014015 | 40 | 32 | 0.0 | 0.9 | 0.00 | 0.00 | 0.00 | 84 | 1014.4 |
| 20260507013446 | 40 | 32 | 0.0 | 1.7 | 0.00 | 0.00 | 0.00 | 83 | 1014.4 |
| 20260507013015 | 40 | 32 | 0.0 | 2.6 | 0.00 | 0.00 | 0.00 | 83 | 1014.4 |
| 20260507012515 | 40 | 32 | 0.0 | 2.6 | 0.00 | 0.00 | 0.00 | 83 | 1014.4 |
| 20260507011945 | 40 | 32 | 0.9 | 2.6 | 0.00 | 0.00 | 0.00 | 83 | 1014.3 |
| 20260507010445 | 41 | 32 | 0.0 | 0.9 | 0.00 | 0.00 | 0.00 | 82 | 1014.5 |
| 20260507010015 | 41 | 32 | 0.9 | 0.9 | 0.00 | 0.00 | 0.00 | 82 | 1014.5 |
| 20260507005515 | 41 | 32 | 0.0 | 0.0 | 0.00 | 0.00 | 0.00 | 82 | 1014.5 |
| 20260507004945 | 41 | 32 | 0.0 | 0.0 | 0.00 | 0.00 | 0.00 | 82 | 1014.5 |
| 20260507004515 | 41 | 32 | 0.0 | 0.0 | 0.00 | 0.00 | 0.00 | 82 | 1014.4 |
| 20260507003945 | 41 | 32 | 0.0 | 0.0 | 0.00 | 0.00 | 0.00 | 82 | 1014.4 |
| 20260507003515 | 41 | 32 | 0.0 | 0.0 | 0.00 | 0.00 | 0.00 | 82 | 1014.3 |
| 20260507002945 | 42 | 32 | 0.0 | 0.0 | 0.00 | 0.00 | 0.00 | 82 | 1014.4 |
| 20260507001445 | 42 | 32 | 0.0 | 0.0 | 0.00 | 0.00 | 0.00 | 82 | 1014.5 |
| 20260507000515 | 42 | 32 | 0.0 | 1.7 | 0.00 | 0.00 | 0.00 | 81 | 1014.5 |
| 20260507000015 | 42 | 32 | 0.0 | 1.7 | 0.00 | 0.00 | 0.00 | 81 | 1014.5 |
| 20260506235515 | 42 | 32 | 0.0 | 0.9 | 0.00 | 0.00 | 0.00 | 81 | 1014.4 |
| 20260506234945 | 43 | 32 | 0.0 | 0.9 | 0.00 | 0.00 | 0.00 | 81 | 1014.4 |
| 20260506234515 | 43 | 32 | 0.0 | 0.9 | 0.00 | 0.00 | 0.00 | 81 | 1014.4 |
| 20260506233945 | 43 | 32 | 0.0 | 0.9 | 0.00 | 0.00 | 0.00 | 81 | 1014.4 |
| 20260506233445 | 43 | 32 | 0.0 | 0.9 | 0.00 | 0.00 | 0.00 | 81 | 1014.4 |
| 20260506232945 | 43 | 32 | 0.0 | 0.9 | 0.00 | 0.00 | 0.00 | 80 | 1014.4 |
| 20260506232515 | 43 | 32 | 0.0 | 0.9 | 0.00 | 0.00 | 0.00 | 80 | 1014.4 |
| 20260506230445 | 44 | 32 | 0.0 | 3.5 | 0.00 | 0.00 | 0.00 | 80 | 1014.4 |
| 20260506230015 | 44 | 33 | 2.6 | 3.5 | 0.00 | 0.00 | 0.00 | 80 | 1014.3 |
| 20260506225515 | 44 | 33 | 0.0 | 2.6 | 0.00 | 0.00 | 0.00 | 80 | 1014.4 |
| 20260506225015 | 44 | 33 | 2.6 | 2.6 | 0.00 | 0.00 | 0.00 | 80 | 1014.4 |
| 20260506224516 | 44 | 33 | 0.0 | 1.7 | 0.00 | 0.00 | 0.00 | 80 | 1014.3 |
| 20260506223515 | 45 | 33 | 0.0 | 0.9 | 0.00 | 0.00 | 0.00 | 80 | 1014.3 |
| 20260506222515 | 45 | 33 | 0.0 | 0.9 | 0.00 | 0.00 | 0.00 | 80 | 1014.2 |
| 20260506222015 | 45 | 33 | 0.0 | 1.7 | 0.00 | 0.00 | 0.00 | 79 | 1014.1 |
| 20260506221515 | 45 | 33 | 0.0 | 2.6 | 0.00 | 0.00 | 0.00 | 79 | 1014.1 |
| 20260506221015 | 45 | 33 | 0.9 | 2.6 | 0.00 | 0.00 | 0.00 | 79 | 1014.1 |
| 20260506220515 | 45 | 33 | 2.6 | 3.5 | 0.00 | 0.00 | 0.00 | 79 | 1014.1 |
| 20260506220015 | 45 | 32 | 2.6 | 3.5 | 0.00 | 0.00 | 0.00 | 79 | 1014.1 |
| 20260506215515 | 45 | 52 | 0.9 | 5.2 | 0.00 | 0.00 | 0.00 | 79 | 1013.9 |
| 20260506215015 | 46 | 55 | 1.7 | 5.2 | 0.00 | 0.00 | 0.00 | 79 | 1013.8 |
| 20260506214515 | 46 | 53 | 1.7 | 3.5 | 0.00 | 0.00 | 0.00 | 79 | 1013.8 |
| 20260506214015 | 46 | 54 | 1.7 | 3.5 | 0.00 | 0.00 | 0.00 | 79 | 1013.8 |
| 20260506213515 | 46 | 55 | 3.5 | 3.5 | 0.00 | 0.00 | 0.00 | 79 | 1013.8 |
| 20260506213014 | 46 | 55 | 0.9 | 3.5 | 0.00 | 0.00 | 0.00 | 79 | 1013.8 |
| 20260506212515 | 46 | 55 | 1.7 | 3.5 | 0.00 | 0.00 | 0.00 | 79 | 1013.9 |
| 20260506212015 | 46 | 53 | 0.9 | 4.3 | 0.00 | 0.00 | 0.00 | 79 | 1013.8 |
| 20260506211515 | 46 | 54 | 0.9 | 4.3 | 0.00 | 0.00 | 0.00 | 79 | 1013.8 |
| 20260506211014 | 46 | 55 | 2.6 | 3.5 | 0.00 | 0.00 | 0.00 | 79 | 1013.8 |
| 20260506210514 | 46 | 55 | 0.9 | 2.6 | 0.00 | 0.00 | 0.00 | 79 | 1013.7 |
| 20260506210015 | 46 | 55 | 0.0 | 1.7 | 0.00 | 0.00 | 0.00 | 78 | 1013.6 |
| 20260506205515 | 47 | 55 | 0.0 | 1.7 | 0.00 | 0.00 | 0.00 | 77 | 1013.6 |
| 20260506205015 | 47 | 55 | 0.0 | 1.7 | 0.00 | 0.00 | 0.00 | 76 | 1013.6 |
| 20260506204514 | 47 | 55 | 0.9 | 1.7 | 0.00 | 0.00 | 0.00 | 76 | 1013.6 |
| 20260506202514 | 48 | 55 | 1.7 | 2.6 | 0.00 | 0.00 | 0.00 | 73 | 1013.5 |
| 20260506202015 | 48 | 55 | 1.7 | 2.6 | 0.00 | 0.00 | 0.00 | 74 | 1013.5 |
| 20260506201515 | 48 | 55 | 2.6 | 2.6 | 0.00 | 0.00 | 0.00 | 74 | 1013.4 |
| 20260506201014 | 48 | 55 | 0.9 | 2.6 | 0.00 | 0.00 | 0.00 | 74 | 1013.4 |
| 20260506200516 | 49 | 55 | 0.0 | 2.6 | 0.00 | 0.00 | 0.00 | 74 | 1013.4 |
| 20260506200015 | 49 | 55 | 2.6 | 3.5 | 0.00 | 0.00 | 0.00 | 73 | 1013.3 |
| 20260506195515 | 49 | 55 | 0.9 | 3.5 | 0.00 | 0.00 | 0.00 | 72 | 1013.2 |
| 20260506195014 | 50 | 55 | 0.0 | 3.5 | 0.00 | 0.00 | 0.00 | 71 | 1013.3 |
| 20260506194514 | 50 | 54 | 0.9 | 5.2 | 0.00 | 0.00 | 0.00 | 70 | 1013.2 |
| 20260506194016 | 51 | 55 | 1.7 | 5.2 | 0.00 | 0.00 | 0.00 | 70 | 1013.2 |
| 20260506193515 | 51 | 49 | 0.9 | 4.3 | 0.00 | 0.00 | 0.00 | 70 | 1013.1 |
| 20260506193014 | 51 | 47 | 0.9 | 4.3 | 0.00 | 0.00 | 0.00 | 69 | 1013.1 |
| 20260506192514 | 52 | 46 | 1.7 | 4.3 | 0.00 | 0.00 | 0.00 | 69 | 1013.1 |
| 20260506192014 | 52 | 40 | 1.7 | 4.3 | 0.00 | 0.00 | 0.00 | 68 | 1013.1 |
| 20260506191514 | 52 | 38 | 3.5 | 4.3 | 0.00 | 0.00 | 0.00 | 68 | 1013.0 |
| 20260506190515 | 53 | 46 | 2.6 | 7.0 | 0.00 | 0.00 | 0.00 | 66 | 1013.0 |
| 20260506190015 | 53 | 51 | 1.7 | 7.0 | 0.00 | 0.00 | 0.00 | 66 | 1013.0 |
| 20260506185515 | 53 | 94 | 1.7 | 5.2 | 0.00 | 0.00 | 0.00 | 66 | 1012.9 |
| 20260506184514 | 53 | 57 | 4.3 | 7.8 | 0.00 | 0.00 | 0.00 | 65 | 1012.9 |
| 20260506184014 | 53 | 43 | 2.6 | 8.7 | 0.00 | 0.00 | 0.00 | 64 | 1012.8 |
| 20260506183515 | 53 | 56 | 3.5 | 8.7 | 0.00 | 0.00 | 0.00 | 64 | 1012.8 |
| 20260506182514 | 53 | 33 | 3.5 | 7.8 | 0.00 | 0.00 | 0.00 | 63 | 1012.8 |
| 20260506182015 | 53 | 20 | 2.6 | 7.8 | 0.00 | 0.00 | 0.00 | 62 | 1012.7 |
| 20260506181515 | 54 | 5 | 4.3 | 8.7 | 0.00 | 0.00 | 0.00 | 61 | 1012.6 |
| 20260506180515 | 54 | 9 | 7.0 | 8.7 | 0.00 | 0.00 | 0.00 | 61 | 1012.5 |
| 20260506180015 | 54 | 26 | 5.2 | 7.0 | 0.00 | 0.00 | 0.00 | 61 | 1012.5 |
| 20260506175514 | 54 | 14 | 2.6 | 8.7 | 0.00 | 0.00 | 0.00 | 61 | 1012.5 |
| 20260506174515 | 54 | 11 | 4.3 | 7.8 | 0.00 | 0.00 | 0.00 | 60 | 1012.3 |
| 20260506174014 | 55 | 11 | 6.1 | 9.6 | 0.00 | 0.00 | 0.00 | 60 | 1012.2 |
| 20260506173514 | 55 | 18 | 4.3 | 9.6 | 0.00 | 0.00 | 0.00 | 59 | 1012.2 |
| 20260506173014 | 56 | 38 | 2.6 | 5.2 | 0.00 | 0.00 | 0.00 | 58 | 1012.1 |
| 20260506172514 | 56 | 55 | 0.9 | 5.2 | 0.00 | 0.00 | 0.00 | 57 | 1012.1 |
| 20260506172014 | 57 | 61 | 0.0 | 5.2 | 0.00 | 0.00 | 0.00 | 58 | 1012.1 |
| 20260506171015 | 55 | 13 | 0.9 | 4.3 | 0.00 | 0.00 | 0.00 | 61 | 1012.1 |
| 20260506170516 | 55 | 5 | 3.5 | 7.8 | 0.00 | 0.00 | 0.00 | 61 | 1012.1 |
| 20260506170015 | 54 | 32 | 3.5 | 7.8 | 0.00 | 0.00 | 0.00 | 61 | 1012.1 |
| 20260506165514 | 54 | 31 | 3.5 | 7.8 | 0.00 | 0.00 | 0.00 | 61 | 1012.1 |
| 20260506165014 | 55 | 34 | 7.0 | 8.7 | 0.00 | 0.00 | 0.00 | 60 | 1012.1 |
| 20260506164514 | 55 | 24 | 1.7 | 8.7 | 0.00 | 0.00 | 0.00 | 61 | 1012.1 |
| 20260506164014 | 55 | 24 | 4.3 | 8.7 | 0.00 | 0.00 | 0.00 | 59 | 1012.2 |
| 20260506163014 | 55 | 5 | 3.5 | 7.8 | 0.00 | 0.00 | 0.00 | 58 | 1012.1 |
| 20260506162514 | 56 | 74 | 1.7 | 7.0 | 0.00 | 0.00 | 0.00 | 57 | 1012.0 |
| 20260506162014 | 56 | 50 | 3.5 | 7.0 | 0.00 | 0.00 | 0.00 | 57 | 1012.0 |
| 20260506161014 | 56 | 21 | 2.6 | 9.6 | 0.00 | 0.00 | 0.00 | 57 | 1012.1 |
| 20260506160514 | 57 | 55 | 4.3 | 9.6 | 0.00 | 0.00 | 0.00 | 56 | 1012.0 |
| 20260506160014 | 57 | 42 | 5.2 | 9.6 | 0.00 | 0.00 | 0.00 | 56 | 1012.1 |
| 20260506155514 | 57 | 34 | 7.0 | 9.6 | 0.00 | 0.00 | 0.00 | 58 | 1012.1 |
| 20260506155014 | 56 | 27 | 4.3 | 9.6 | 0.00 | 0.00 | 0.00 | 56 | 1012.1 |
| 20260506154514 | 56 | 67 | 4.3 | 8.7 | 0.00 | 0.00 | 0.00 | 58 | 1012.1 |
| 20260506154015 | 56 | 35 | 3.5 | 8.7 | 0.00 | 0.00 | 0.00 | 57 | 1012.1 |
| 20260506153514 | 56 | 57 | 6.1 | 8.7 | 0.00 | 0.00 | 0.00 | 58 | 1012.2 |
| 20260506153014 | 56 | 78 | 3.5 | 11.3 | 0.00 | 0.00 | 0.00 | 59 | 1012.1 |
| 20260506152014 | 56 | 54 | 6.1 | 11.3 | 0.00 | 0.00 | 0.00 | 56 | 1012.1 |
| 20260506151514 | 56 | 28 | 3.5 | 8.7 | 0.00 | 0.00 | 0.00 | 55 | 1012.1 |
| 20260506150514 | 56 | 42 | 2.6 | 13.0 | 0.00 | 0.00 | 0.00 | 53 | 1012.2 |
| 20260506150014 | 57 | 30 | 3.5 | 13.0 | 0.00 | 0.00 | 0.00 | 53 | 1012.2 |
| 20260506145014 | 56 | 22 | 3.5 | 7.0 | 0.00 | 0.00 | 0.00 | 54 | 1012.1 |
| 20260506144514 | 57 | 36 | 3.5 | 10.4 | 0.00 | 0.00 | 0.00 | 51 | 1012.2 |
| 20260506143514 | 58 | 26 | 2.6 | 12.2 | 0.00 | 0.00 | 0.00 | 53 | 1012.2 |
| 20260506143014 | 57 | 32 | 10.4 | 12.2 | 0.00 | 0.00 | 0.00 | 54 | 1012.2 |
| 20260506142014 | 56 | 20 | 4.3 | 11.3 | 0.00 | 0.00 | 0.00 | 54 | 1012.3 |
| 20260506141514 | 57 | 63 | 7.0 | 11.3 | 0.00 | 0.00 | 0.00 | 54 | 1012.2 |
| 20260506141014 | 57 | 49 | 8.7 | 11.3 | 0.00 | 0.00 | 0.00 | 53 | 1012.2 |
| 20260506140514 | 57 | 42 | 3.5 | 10.4 | 0.00 | 0.00 | 0.00 | 54 | 1012.2 |
| 20260506140014 | 57 | 360 | 1.7 | 10.4 | 0.00 | 0.00 | 0.00 | 53 | 1012.2 |